Regional Weather Roundup
Issued by NWS

Home | Current Version | Previous Version | Text Only | Print | Product List | Glossary Off
Versions: 1 2 3 4 5 6 7 8 9 10 11 12 13 14 15 16 17 18 19 20 21 22 23 24 25 26 27 28 29 30 31 32 33 34 35 36 37 38 39 40 41 42 43 44 45 46 47 48 49 50

707
ASUS45 KBOU 260407
RWRCO

WEATHER ROUNDUP FOR COLORADO
NATIONAL WEATHER SERVICE DENVER/BOULDER CO
1000 PM MDT WED MAY 25 2016

NOTE: "FAIR" INDICATES FEW OR NO CLOUDS BELOW 12000 FEET WITH NO
SIGNIFICANT WEATHER AND/OR OBSTRUCTIONS TO VISIBILITY.

COZ001>005-013-030-031-260500-
...NORTHWEST COLORADO...

CITY           SKY/WX    TMP DP  RH WIND       PRES   REMARKS
CRAIG          FAIR      51  32  48 VRB3      30.06R
HAYDEN         FAIR      45  25  45 SW9       30.06R
MEEKER         FAIR      44  27  51 NE7       30.04R
MOUNT WERNER   NOT AVBL
STEAMBOAT SPGS FAIR      47  28  47 CALM      30.07R
WALDEN         FAIR      41  23  48 E3        30.14R
$$

COZ006>008-011-260500-
...WEST CENTRAL VALLEYS...

CITY           SKY/WX    TMP DP  RH WIND       PRES   REMARKS
GRAND JUNCTION FAIR      60  16  18 N7        29.93S
MONTROSE       FAIR      59  20  22 S8        30.01R
EAGLE          FAIR      50  21  32 E8        30.07R
RIFLE          FAIR      53  26  35 SE7       29.99R
DELTA          FAIR      60  20  21 NE7       29.96R
NUCLA          FAIR      59  18  20 E5        30.03R
$$

COZ017>023-064>068-260500-
...SOUTHWEST COLORADO...

CITY           SKY/WX    TMP DP  RH WIND       PRES   REMARKS
DURANGO        FAIR      49  24  37 NE6       30.04R
CORTEZ         FAIR      55  25  31 NE3       29.99S
PAGOSA SPRINGS CLOUDY    58  14  18 CALM      30.11R
TELLURIDE      CLOUDY    49  13  23 CALM      30.18S
WOLF CREEK PAS CLOUDY    32  16  51 S12       30.35R WCI  23
$$

COZ009-010-012-014-032>034-037-058>063-260500-
...CENTRAL COLORADO...

CITY           SKY/WX    TMP DP  RH WIND       PRES   REMARKS
ASPEN          FAIR      44  20  38 SW9       30.11R
BUENA VISTA    FAIR      45  11  25 W6        30.12R
COPPER MTN     NOT AVBL
BERTHOUD PASS  FAIR      32  21  64 NW6       30.34R WCI  26
COTTONWOOD PAS FAIR      46   5  18 SW13G20   30.21S
GUNNISON       FAIR      50  14  23 NW10      30.13S
KREMMLING      FAIR      45  18  33 CALM      30.10R
LEADVILLE      FAIR      35   7  31 VRB5      30.20S WCI  31
MONARCH PASS   FAIR      34  10  37 W21G26    30.41S WCI  22
SALIDA         FAIR      56  10  16 W6        30.17R
SUNLIGHT       FAIR      41  18  38 CALM      30.28R
WILKERSON PASS CLOUDY    41  -4  15 W7        30.31R
$$

COZ069>075-260500-
...SAN LUIS VALLEY/SANGRE DE CRISTO MOUNTAINS...

CITY           SKY/WX    TMP DP  RH WIND       PRES   REMARKS
ALAMOSA        FAIR      45  20  36 W6        30.10R
LA VETA PASS   CLOUDY    45  10  24 S8        30.25S
SAGUACHE       FAIR      43  14  31 N6        30.13R
$$

COZ035-036-038>040-260500-
...NORTHERN COLORADO FRONT RANGE...

CITY           SKY/WX    TMP DP  RH WIND       PRES   REMARKS
DENVER INTL AP MOCLDY    54  43  66 E13       29.97R
DMNS CITY PARK   N/A     57  42  57 NE13      29.99R
AURORA         MOCLDY    53  43  70 E9        30.00R
FRONT RANGE AP NOT AVBL
ERIE MUNI ARPT FAIR      55  44  66 NE5       29.97R
BOULDER MUN AP FAIR      61  43  51 NE8       29.98R
CENTENNIAL     MOCLDY    59  40  49 VRB6      29.99R
BROOMFIELD     NOT AVBL
FORT COLLINS   FAIR      55  41  58 NE5       30.00R
LONGMONT       FAIR      57  46  67 N6        30.00R
$$

COZ041-046-047-076>085-087-088-260500-
...PIKES PEAK/PALMER DIVIDE AND SOUTHERN FOOTHILLS...

CITY           SKY/WX    TMP DP  RH WIND       PRES   REMARKS
COLO. SPRINGS  FAIR      60  17  18 N10       30.00R
A. F. ACADEMY  FAIR      57  19  23 NE5       30.01R
SCHRIEVER AFB  NOT AVBL
ELLICOTT       FAIR     N/A N/A N/A SE10      29.99R
FALCON         FAIR      55  23  28 N6        30.04S
FORT CARSON    FAIR      63  12  13 W10       29.95R
LIMON          FAIR      55  42  61 E13       29.97R
MONUMENT HILL  FAIR      52  27  37 S3        30.07R
TRINIDAD       FAIR      60  14  16 NW6       29.98R
$$

COZ042>045-048>051-090-091-260500-
...NORTHEAST COLORADO...

CITY           SKY/WX    TMP DP  RH WIND       PRES   REMARKS
GREELEY ARPT   FAIR      55  43  62 NE6       29.98R
AKRON          FAIR      52  44  74 E12       29.96S
BURLINGTON     FAIR      53  44  71 E13       29.93F
WRAY           FAIR      55  46  71 N5        29.94R
STERLING       FAIR      55  45  67 NE5       29.96R
HOLYOKE        NOT AVBL
FORT MORGAN    FAIR      53  43  70 NE9       29.96F
$$

COZ086-089-092>099-260500-
...SOUTHEAST COLORADO...

CITY           SKY/WX    TMP DP  RH WIND       PRES   REMARKS
PUEBLO         FAIR      59  20  22 W6        29.89R
LA JUNTA       FAIR      65  31  28 CALM      29.86R
LAMAR          FAIR      59  37  44 E9        29.82S
SPRINGFIELD      N/A     54  31  41 S9        29.89R
$$




USA.gov is the U.S. government's official web portal to all federal, state and local government web resources and services.